Location: Newark
(44.6028°N, 124.0883°W)
Time: 17:23:31
(UTC+00:00)

Vanguard 1 Rocket - Pass Details

Date: 26 October 2019
Orbit: 651 x 4225 km, 34.3° (Epoch: 16 November)

Event Time Altitude Azimuth Distance (km) Brightness Sun altitude
Rises 19:58:24 0° 262° (W) 5,462 11.5 32.8°
Reaches altitude 10° 20:01:21 10° 259° (W) 4,826 11.3 32.8°
Maximum altitude 20:16:16 60° 184° (S) 3,695 11.8 32.7°
Drops below altitude 10° 20:40:47 10° 113° (ESE) 7,426 12.3 32.1°
Sets 20:46:48 0° 111° (ESE) 8,435 12.4 31.9°
